• In Belarus
  • List of Countries
  • For 7 days
  • Water Temperature
  • Satellite Maps
  • Weather Map
  • Weather Widgets
  • user-avatar
    Login

    Hourly Weather Saint-Jean-sur-Richelieu

    Today, 24 November, Friday

    Time Temperature Precipitation Wind Pressure Humidity
    00:00 -2°C° 0.1 mm 4 mps 755 mmHg 80%
    01:00 -1°C° 0.1 mm 4 mps 755 mmHg 81%
    02:00 -1°C° 0 mm 4 mps 755 mmHg 82%
    03:00 -1°C° 0 mm 4 mps 755 mmHg 83%
    04:00 -1°C° 0 mm 4 mps 755 mmHg 83%
    05:00 -1°C° 0 mm 3 mps 755 mmHg 84%
    06:00 -1°C° 0 mm 3 mps 755 mmHg 85%
    07:00 -1°C° 0 mm 3 mps 755 mmHg 86%
    08:00 0°C° 0 mm 3 mps 755 mmHg 82%
    09:00 +1°C° 0 mm 3 mps 755 mmHg 78%
    10:00 +2°C° 0 mm 3 mps 755 mmHg 74%
    11:00 +2°C° 0 mm 3 mps 755 mmHg 72%
    12:00 +3°C° 0 mm 3 mps 754 mmHg 71%
    13:00 +4°C° 0 mm 3 mps 753 mmHg 69%
    14:00 +4°C° 0 mm 3 mps 753 mmHg 71%
    15:00 +3°C° 0 mm 3 mps 752 mmHg 73%
    16:00 +3°C° 0 mm 4 mps 752 mmHg 75%
    17:00 +1°C° 0 mm 4 mps 752 mmHg 75%
    18:00 +1°C° 0 mm 4 mps 751 mmHg 75%
    19:00 +1°C° 0 mm 4 mps 751 mmHg 75%
    20:00 +1°C° 0 mm 5 mps 751 mmHg 74%
    21:00 +1°C° 0 mm 5 mps 751 mmHg 73%
    22:00 +1°C° 0 mm 5 mps 750 mmHg 72%
    23:00 +1°C° 0 mm 5 mps 750 mmHg 71%

    Tomorrow, 25 November, Saturday

    Time Temperature Precipitation Wind Pressure Humidity
    00:00 +1°C° 0 mm 4 mps 750 mmHg 71%
    01:00 +3°C° 0 mm 4 mps 749 mmHg 71%
    02:00 +1°C° 0 mm 4 mps 749 mmHg 72%
    03:00 +1°C° 0 mm 4 mps 749 mmHg 72%
    04:00 +1°C° 0 mm 4 mps 748 mmHg 72%
    05:00 +1°C° 0 mm 4 mps 748 mmHg 72%
    06:00 +1°C° 0 mm 4 mps 748 mmHg 72%
    07:00 +1°C° 0 mm 4 mps 748 mmHg 72%
    08:00 +3°C° 0.7 mm 4 mps 748 mmHg 74%
    09:00 +3°C° 0.7 mm 4 mps 748 mmHg 76%
    10:00 +3°C° 0.7 mm 5 mps 748 mmHg 78%
    11:00 +4°C° 0.4 mm 4 mps 748 mmHg 80%
    12:00 +4°C° 0.4 mm 4 mps 748 mmHg 82%
    13:00 +4°C° 0.4 mm 4 mps 748 mmHg 84%
    14:00 +4°C° 0.1 mm 4 mps 748 mmHg 86%
    15:00 +4°C° 0.1 mm 3 mps 748 mmHg 87%
    16:00 +4°C° 0.1 mm 3 mps 748 mmHg 89%
    17:00 +4°C° 0.1 mm 3 mps 749 mmHg 91%
    18:00 +5°C° 0.1 mm 2 mps 749 mmHg 92%
    19:00 +5°C° 0.1 mm 2 mps 749 mmHg 94%
    20:00 +4°C° 0.1 mm 2 mps 749 mmHg 93%
    21:00 +4°C° 0.1 mm 2 mps 749 mmHg 93%
    22:00 +4°C° 0.1 mm 2 mps 750 mmHg 92%
    23:00 +4°C° 0.1 mm 2 mps 750 mmHg 90%

    Day after tomorrow, 26 November, Sunday

    Time Temperature Precipitation Wind Pressure Humidity
    00:00 +3°C° 0.1 mm 2 mps 750 mmHg 88%
    01:00 +2°C° 0.1 mm 3 mps 750 mmHg 85%
    02:00 +1°C° 0.1 mm 3 mps 751 mmHg 85%
    03:00 0°C° 0.1 mm 3 mps 751 mmHg 85%
    04:00 +1°C° 0.1 mm 2 mps 751 mmHg 84%
    05:00 -1°C° 0.1 mm 3 mps 752 mmHg 84%
    06:00 -1°C° 0.1 mm 3 mps 752 mmHg 83%
    07:00 -2°C° 0.1 mm 3 mps 753 mmHg 83%
    08:00 -2°C° 0.1 mm 3 mps 754 mmHg 81%
    09:00 -2°C° 0.1 mm 3 mps 754 mmHg 78%
    10:00 -3°C° 0.1 mm 4 mps 754 mmHg 76%
    11:00 -3°C° 0.1 mm 4 mps 754 mmHg 73%
    12:00 -4°C° 0.1 mm 5 mps 754 mmHg 70%
    13:00 -4°C° 0.1 mm 5 mps 754 mmHg 67%
    14:00 -4°C° 0 mm 5 mps 754 mmHg 68%
    15:00 -5°C° 0 mm 5 mps 754 mmHg 70%
    16:00 -4°C° 0 mm 4 mps 754 mmHg 71%
    17:00 -4°C° 0.1 mm 4 mps 754 mmHg 74%
    18:00 -4°C° 0.1 mm 4 mps 755 mmHg 78%
    19:00 -5°C° 0.1 mm 4 mps 755 mmHg 82%
    20:00 -4°C° 0.1 mm 4 mps 754 mmHg 82%
    21:00 -4°C° 0.1 mm 4 mps 754 mmHg 82%
    22:00 -4°C° 0.1 mm 3 mps 754 mmHg 82%
    23:00 -4°C° 0.1 mm 3 mps 753 mmHg 83%

    27 November, Monday

    Time Temperature Precipitation Wind Pressure Humidity
    00:00 -3°C° 0.1 mm 2 mps 753 mmHg 85%
    01:00 -1°C° 0.1 mm 1 mps 753 mmHg 86%
    02:00 -1°C° 0.1 mm 1 mps 753 mmHg 87%
    03:00 -1°C° 0.1 mm 1 mps 753 mmHg 88%
    04:00 0°C° 0.1 mm 1 mps 753 mmHg 89%
    05:00 0°C° 0.1 mm 1 mps 753 mmHg 88%
    06:00 -2°C° 0.1 mm 2 mps 754 mmHg 88%
    07:00 -2°C° 0.1 mm 2 mps 755 mmHg 88%
    08:00 -2°C° 0.2 mm 3 mps 755 mmHg 84%
    09:00 -4°C° 0.2 mm 4 mps 756 mmHg 79%
    10:00 -5°C° 0.2 mm 5 mps 757 mmHg 74%
    11:00 -5°C° 0.1 mm 6 mps 757 mmHg 69%
    12:00 -5°C° 0.1 mm 6 mps 757 mmHg 65%
    13:00 -5°C° 0.1 mm 6 mps 758 mmHg 60%
    14:00 -6°C° 0 mm 5 mps 759 mmHg 62%
    15:00 -5°C° 0 mm 4 mps 759 mmHg 64%
    16:00 -7°C° 0 mm 4 mps 760 mmHg 66%
    17:00 -6°C° 0 mm 3 mps 761 mmHg 68%
    18:00 -6°C° 0 mm 3 mps 761 mmHg 70%
    19:00 -6°C° 0 mm 2 mps 762 mmHg 72%
    20:00 -6°C° 0 mm 2 mps 762 mmHg 72%
    21:00 -4°C° 0 mm 1 mps 763 mmHg 72%
    22:00 -4°C° 0 mm 1 mps 763 mmHg 73%
    23:00 -4°C° 0 mm 1 mps 763 mmHg 74%

    28 November, Tuesday

    Time Temperature Precipitation Wind Pressure Humidity
    00:00 -4°C° 0 mm 1 mps 763 mmHg 74%
    01:00 -6°C° 0 mm 2 mps 762 mmHg 75%
    02:00 -6°C° 0 mm 2 mps 762 mmHg 75%
    03:00 -6°C° 0 mm 2 mps 762 mmHg 75%
    04:00 -6°C° 0 mm 2 mps 762 mmHg 75%
    05:00 -6°C° 0 mm 3 mps 761 mmHg 73%
    06:00 -5°C° 0 mm 4 mps 760 mmHg 70%
    07:00 -4°C° 0 mm 4 mps 760 mmHg 67%
    08:00 -4°C° 0 mm 5 mps 759 mmHg 65%
    09:00 -1°C° 0 mm 5 mps 758 mmHg 63%
    10:00 +1°C° 0 mm 6 mps 757 mmHg 62%
    11:00 +2°C° 0 mm 5 mps 756 mmHg 62%
    12:00 +5°C° 0 mm 5 mps 755 mmHg 63%
    13:00 +6°C° 0 mm 5 mps 754 mmHg 64%
    14:00 +6°C° 0 mm 5 mps 754 mmHg 67%
    15:00 +6°C° 0 mm 5 mps 753 mmHg 70%
    16:00 +6°C° 0 mm 5 mps 753 mmHg 73%
    17:00 +6°C° 0.1 mm 5 mps 753 mmHg 75%
    18:00 +6°C° 0.1 mm 5 mps 753 mmHg 77%
    19:00 +6°C° 0.1 mm 5 mps 753 mmHg 79%
    20:00 +6°C° 0.2 mm 5 mps 753 mmHg 81%
    21:00 +6°C° 0.2 mm 5 mps 753 mmHg 84%
    22:00 +5°C° 0.2 mm 5 mps 753 mmHg 86%
    23:00 +5°C° 0.4 mm 5 mps 753 mmHg 88%

    29 November, Wednesday

    Time Temperature Precipitation Wind Pressure Humidity
    00:00 +5°C° 0.4 mm 5 mps 753 mmHg 90%
    01:00 +5°C° 0.4 mm 5 mps 753 mmHg 92%
    02:00 +5°C° 0.3 mm 5 mps 753 mmHg 92%
    03:00 +3°C° 0.3 mm 5 mps 754 mmHg 92%
    04:00 +3°C° 0.3 mm 5 mps 754 mmHg 91%
    05:00 +4°C° 0 mm 4 mps 755 mmHg 90%
    06:00 +3°C° 0 mm 4 mps 756 mmHg 89%
    07:00 +1°C° 0 mm 4 mps 757 mmHg 88%
    08:00 +1°C° 0 mm 4 mps 758 mmHg 81%
    09:00 +1°C° 0 mm 4 mps 759 mmHg 75%
    10:00 +1°C° 0 mm 4 mps 760 mmHg 68%
    11:00 +1°C° 0 mm 4 mps 760 mmHg 67%
    12:00 +1°C° 0 mm 4 mps 761 mmHg 65%
    13:00 +2°C° 0 mm 3 mps 761 mmHg 63%
    14:00 +2°C° 0 mm 3 mps 762 mmHg 66%
    15:00 +2°C° 0 mm 2 mps 762 mmHg 69%
    16:00 +2°C° 0 mm 1 mps 763 mmHg 72%
    17:00 +1°C° 0 mm 1 mps 763 mmHg 74%
    18:00 +1°C° 0 mm 1 mps 764 mmHg 76%
    19:00 0°C° 0 mm 1 mps 764 mmHg 78%
    20:00 0°C° 0 mm 1 mps 764 mmHg 78%
    21:00 -2°C° 0 mm 2 mps 764 mmHg 78%
    22:00 -2°C° 0 mm 2 mps 764 mmHg 78%
    23:00 -2°C° 0 mm 2 mps 764 mmHg 77%
    Show more